Terminal Aerodrome Forecast
Issued by NWS Portland, ME

Home | Current Version | Previous Version | Text Only | Print | Product List | Glossary On
Versions: 1 2 3 4 5 6 7 8 9 10 11 12 13 14 15 16 17 18 19 20 21 22 23 24 25 26 27 28 29 30 31 32 33 34
000
FTUS41 KGYX 191241 AAA
TAFCON
TAF AMD
KCON 191241Z 1913/2012 VRB03KT 3SM BR BKN002
     FM191400 VRB04KT P6SM SCT050
     FM200400 11003KT 4SM BR BKN007=

USA.gov is the U.S. government's official web portal to all federal, state and local government web resources and services.